SWA3245 KMCO-KSTL

Flight info

Callsign SWA3245
Flight time 2h 4m
Altitude 38000
Route RDSOX1 JFRYS PATOY Q116 VLKNN GETME J151 VISQA BOOSH3
Aircraft B738/M-SDE2E3FGHIRWXY/LB1

Departure

Time 2026-04-25 12:51
Airport Orlando International Airport (KMCO)

Arrival

Time 2026-04-25 14:55
Airport St. Louis Lambert International Airport (KSTL)
Time Latitude Longitude Altitude Speed Heading
2026-04-25 11:48 28.43413 -81.30111 89 ft 0 kts 62°
2026-04-25 12:18 28.43411 -81.30115 89 ft 2 kts 63°
2026-04-25 12:18 28.43404 -81.30130 89 ft 2 kts 62°
2026-04-25 12:18 28.43397 -81.30146 88 ft 2 kts 78°
2026-04-25 12:19 28.43404 -81.30177 88 ft 2 kts 135°
2026-04-25 12:19 28.43416 -81.30187 88 ft 1 kts 162°
2026-04-25 12:19 28.43421 -81.30189 88 ft 0 kts 169°
2026-04-25 12:20 28.43411 -81.30180 88 ft 1 kts 133°
2026-04-25 12:20 28.43410 -81.30180 88 ft 0 kts 133°
2026-04-25 12:24 28.43410 -81.30179 88 ft 0 kts 133°
2026-04-25 12:24 28.43408 -81.30177 88 ft 0 kts 137°
2026-04-25 12:25 28.43407 -81.30177 88 ft 1 kts 144°
2026-04-25 12:25 28.43361 -81.30166 88 ft 7 kts 172°
2026-04-25 12:26 28.43317 -81.30147 88 ft 5 kts 140°
2026-04-25 12:26 28.43296 -81.30115 88 ft 5 kts 120°
2026-04-25 12:26 28.43282 -81.30039 90 ft 9 kts 88°
2026-04-25 12:26 28.43300 -81.29958 91 ft 0 kts 70°
2026-04-25 12:27 28.43300 -81.29957 91 ft 0 kts 70°
2026-04-25 12:27 28.43301 -81.29955 91 ft 1 kts 70°
2026-04-25 12:28 28.43313 -81.29916 91 ft 5 kts 70°
2026-04-25 12:28 28.43314 -81.29914 91 ft 0 kts 70°
2026-04-25 12:30 28.43315 -81.29912 91 ft 1 kts 70°
2026-04-25 12:30 28.43322 -81.29890 91 ft 4 kts 69°
2026-04-25 12:30 28.43337 -81.29847 91 ft 10 kts 67°
2026-04-25 12:30 28.43399 -81.29803 91 ft 12 kts
2026-04-25 12:31 28.43466 -81.29805 91 ft 0 kts 359°
2026-04-25 12:31 28.43497 -81.29805 91 ft 14 kts
2026-04-25 12:31 28.43545 -81.29761 91 ft 0 kts 75°
2026-04-25 12:31 28.43541 -81.29733 91 ft 6 kts 121°
2026-04-25 12:32 28.43506 -81.29712 91 ft 7 kts 172°
2026-04-25 12:32 28.43446 -81.29710 91 ft 14 kts 180°
2026-04-25 12:32 28.43293 -81.29710 91 ft 22 kts 179°
2026-04-25 12:32 28.43158 -81.29709 91 ft 17 kts 179°
2026-04-25 12:33 28.43039 -81.29707 91 ft 17 kts 180°
2026-04-25 12:33 28.42890 -81.29706 91 ft 25 kts 179°
2026-04-25 12:33 28.42709 -81.29703 89 ft 24 kts 179°
2026-04-25 12:33 28.42547 -81.29702 88 ft 23 kts 179°
2026-04-25 12:34 28.42398 -81.29700 88 ft 20 kts 179°
2026-04-25 12:34 28.42282 -81.29756 90 ft 18 kts 261°
2026-04-25 12:34 28.42279 -81.29932 91 ft 25 kts 270°
2026-04-25 12:34 28.42278 -81.30061 91 ft 23 kts 269°
2026-04-25 12:35 28.42275 -81.30354 89 ft 22 kts 268°
2026-04-25 12:35 28.42269 -81.30463 88 ft 0 kts 265°
2026-04-25 12:35 28.42268 -81.30479 88 ft 10 kts 265°
2026-04-25 12:35 28.42259 -81.30599 87 ft 17 kts 265°
2026-04-25 12:36 28.42247 -81.30765 85 ft 23 kts 265°
2026-04-25 12:36 28.42235 -81.30967 85 ft 26 kts 268°
2026-04-25 12:36 28.42255 -81.31168 85 ft 28 kts 281°
2026-04-25 12:36 28.42268 -81.31371 86 ft 25 kts 269°
2026-04-25 12:37 28.42267 -81.31538 88 ft 14 kts 270°
2026-04-25 12:37 28.42269 -81.31621 88 ft 0 kts 275°
2026-04-25 12:37 28.42267 -81.31636 88 ft 9 kts 265°
2026-04-25 12:37 28.42264 -81.31724 88 ft 13 kts 269°
2026-04-25 12:38 28.42312 -81.31826 88 ft 17 kts 347°
2026-04-25 12:38 28.42411 -81.31832 88 ft 0 kts 360°
2026-04-25 12:38 28.42450 -81.31832 88 ft 12 kts
2026-04-25 12:39 28.42543 -81.31834 88 ft 18 kts 359°
2026-04-25 12:39 28.42741 -81.31835 88 ft 29 kts 360°
2026-04-25 12:39 28.42941 -81.31838 88 ft 28 kts 359°
2026-04-25 12:39 28.43143 -81.31840 88 ft 29 kts 359°
2026-04-25 12:40 28.43345 -81.31843 88 ft 29 kts 360°
2026-04-25 12:40 28.43540 -81.31844 91 ft 24 kts 360°
2026-04-25 12:40 28.43650 -81.31845 91 ft 11 kts
2026-04-25 12:40 28.43689 -81.31846 91 ft 0 kts 359°
2026-04-25 12:41 28.43694 -81.31846 91 ft 1 kts 359°
2026-04-25 12:41 28.43724 -81.31846 91 ft 12 kts 359°
2026-04-25 12:41 28.43806 -81.31847 91 ft 8 kts 359°
2026-04-25 12:41 28.43830 -81.31847 91 ft 0 kts 360°
2026-04-25 12:42 28.43839 -81.31847 91 ft 1 kts 359°
2026-04-25 12:42 28.43849 -81.31847 91 ft 2 kts 359°
2026-04-25 12:42 28.43939 -81.31898 91 ft 11 kts 300°
2026-04-25 12:42 28.43964 -81.31952 91 ft 0 kts 294°
2026-04-25 12:43 28.43980 -81.32001 91 ft 13 kts 287°
2026-04-25 12:43 28.43984 -81.32072 91 ft 2 kts 264°
2026-04-25 12:43 28.43856 -81.32333 91 ft 29 kts 238°
2026-04-25 12:44 28.43753 -81.32528 91 ft 27 kts 239°
2026-04-25 12:44 28.43673 -81.32710 91 ft 24 kts 263°
2026-04-25 12:44 28.43764 -81.32931 91 ft 18 kts
2026-04-25 12:45 28.43955 -81.32924 91 ft 28 kts 12°
2026-04-25 12:45 28.44111 -81.32862 91 ft 21 kts
2026-04-25 12:45 28.44383 -81.32866 91 ft 18 kts 359°
2026-04-25 12:46 28.44511 -81.32867 91 ft 22 kts
2026-04-25 12:46 28.44644 -81.32867 91 ft 17 kts 359°
2026-04-25 12:46 28.44701 -81.32868 91 ft 0 kts
2026-04-25 12:46 28.44708 -81.32868 91 ft 1 kts
2026-04-25 12:47 28.44721 -81.32868 91 ft 2 kts
2026-04-25 12:47 28.44727 -81.32868 91 ft 1 kts
2026-04-25 12:47 28.44788 -81.32862 91 ft 10 kts 18°
2026-04-25 12:47 28.44813 -81.32822 91 ft 3 kts 84°
2026-04-25 12:48 28.44814 -81.32815 91 ft 0 kts 87°
2026-04-25 12:49 28.44816 -81.32769 91 ft 10 kts 87°
2026-04-25 12:49 28.44806 -81.32708 91 ft 6 kts 134°
2026-04-25 12:49 28.44792 -81.32700 91 ft 0 kts 160°
2026-04-25 12:49 28.44778 -81.32697 91 ft 0 kts 179°
2026-04-25 12:50 28.44777 -81.32697 91 ft 0 kts 178°
2026-04-25 12:50 28.44776 -81.32697 91 ft 0 kts 178°
2026-04-25 12:50 28.44771 -81.32697 91 ft 7 kts 179°
2026-04-25 12:50 28.44413 -81.32693 93 ft 93 kts 179°
2026-04-25 12:51 28.43489 -81.32682 95 ft 166 kts 179°
2026-04-25 12:51 28.42213 -81.32644 608 ft 189 kts 176°
2026-04-25 12:51 28.40976 -81.32506 1708 ft 179 kts 174°
2026-04-25 12:51 28.39658 -81.32460 2041 ft 208 kts 186°
2026-04-25 12:52 28.38230 -81.32836 2819 ft 211 kts 202°
2026-04-25 12:52 28.36877 -81.33679 3289 ft 235 kts 212°
2026-04-25 12:52 28.35454 -81.34668 3970 ft 246 kts 211°
2026-04-25 12:52 28.34123 -81.35895 4776 ft 252 kts 229°
2026-04-25 12:53 28.33053 -81.37450 5676 ft 252 kts 234°
2026-04-25 12:53 28.32098 -81.39141 6473 ft 257 kts 246°
2026-04-25 12:53 28.31608 -81.41094 6894 ft 260 kts 261°
2026-04-25 12:53 28.31346 -81.43134 6978 ft 260 kts 263°
2026-04-25 12:54 28.31113 -81.45132 6982 ft 256 kts 263°
2026-04-25 12:54 28.30878 -81.47123 6984 ft 254 kts 264°
2026-04-25 12:54 28.30899 -81.49129 6985 ft 253 kts 281°
2026-04-25 12:54 28.31317 -81.51082 7154 ft 267 kts 286°
2026-04-25 12:55 28.31823 -81.53062 8242 ft 258 kts 288°
2026-04-25 12:55 28.32177 -81.54341 8915 ft 254 kts 289°
2026-04-25 12:55 28.32899 -81.56860 9940 ft 257 kts 289°
2026-04-25 12:55 28.33450 -81.58792 10709 ft 259 kts 289°
2026-04-25 12:56 28.34003 -81.60769 11381 ft 266 kts 289°
2026-04-25 12:56 28.34558 -81.62772 12110 ft 272 kts 290°
2026-04-25 12:56 28.35136 -81.64864 12580 ft 287 kts 290°
2026-04-25 12:56 28.35744 -81.67061 13100 ft 300 kts 289°
2026-04-25 12:57 28.36386 -81.69382 13525 ft 316 kts 289°
2026-04-25 12:57 28.37057 -81.71809 13972 ft 331 kts 289°
2026-04-25 12:57 28.37757 -81.74345 14421 ft 345 kts 289°
2026-04-25 12:57 28.38490 -81.77005 14862 ft 359 kts 289°
2026-04-25 12:58 28.39224 -81.79682 15609 ft 363 kts 289°
2026-04-25 12:58 28.39987 -81.82464 15896 ft 367 kts 289°
2026-04-25 12:58 28.40738 -81.85205 15951 ft 365 kts 289°
2026-04-25 12:58 28.41477 -81.87936 15958 ft 363 kts 288°
2026-04-25 12:59 28.42104 -81.90736 16014 ft 371 kts 283°
2026-04-25 12:59 28.42490 -81.93603 16957 ft 368 kts 277°
2026-04-25 12:59 28.42678 -81.96503 17609 ft 374 kts 274°
2026-04-25 12:59 28.42754 -81.99490 18396 ft 376 kts 272°
2026-04-25 13:00 28.42794 -82.02453 19124 ft 379 kts 272°
2026-04-25 13:00 28.42817 -82.04414 19566 ft 381 kts 272°
2026-04-25 13:00 28.42870 -82.08441 20444 ft 385 kts 273°
2026-04-25 13:00 28.42915 -82.11513 21101 ft 388 kts 273°
2026-04-25 13:01 28.42960 -82.14543 21706 ft 392 kts 273°
2026-04-25 13:01 28.43007 -82.17670 22294 ft 395 kts 273°
2026-04-25 13:01 28.43053 -82.20760 22885 ft 398 kts 273°
2026-04-25 13:01 28.43107 -82.24432 23497 ft 403 kts 273°
2026-04-25 13:02 28.43152 -82.27623 24004 ft 406 kts 273°
2026-04-25 13:02 28.43198 -82.30844 24464 ft 411 kts 273°
2026-04-25 13:02 28.43246 -82.34100 24988 ft 414 kts 274°
2026-04-25 13:02 28.43406 -82.37363 25368 ft 419 kts 278°
2026-04-25 13:03 28.43914 -82.40637 25863 ft 419 kts 287°
2026-04-25 13:03 28.44893 -82.43721 26341 ft 419 kts 296°
2026-04-25 13:03 28.46345 -82.46623 26718 ft 423 kts 305°
2026-04-25 13:03 28.48079 -82.49270 27175 ft 424 kts 310°
2026-04-25 13:04 28.50076 -82.51749 27527 ft 428 kts 318°
2026-04-25 13:04 28.52411 -82.53863 27990 ft 430 kts 326°
2026-04-25 13:04 28.54935 -82.55698 28354 ft 434 kts 330°
2026-04-25 13:04 28.57558 -82.57418 28853 ft 434 kts 331°
2026-04-25 13:05 28.60219 -82.59116 29152 ft 439 kts 331°
2026-04-25 13:05 28.62864 -82.60808 29607 ft 441 kts 331°
2026-04-25 13:05 28.65535 -82.62534 29998 ft 443 kts 331°
2026-04-25 13:05 28.68229 -82.64293 30511 ft 442 kts 330°
2026-04-25 13:06 28.70859 -82.66029 31143 ft 438 kts 330°
2026-04-25 13:06 28.73483 -82.67770 31617 ft 437 kts 330°
2026-04-25 13:06 28.76132 -82.69537 32047 ft 437 kts 329°
2026-04-25 13:06 28.78731 -82.71275 32488 ft 437 kts 329°
2026-04-25 13:07 28.81353 -82.73033 33039 ft 433 kts 329°
2026-04-25 13:07 28.83938 -82.74768 33505 ft 432 kts 329°
2026-04-25 13:07 28.86512 -82.76500 33912 ft 432 kts 329°
2026-04-25 13:07 28.89091 -82.78236 34646 ft 425 kts 329°
2026-04-25 13:08 28.91592 -82.79922 35379 ft 418 kts 329°
2026-04-25 13:08 28.94116 -82.81625 35506 ft 424 kts 329°
2026-04-25 13:08 28.96679 -82.83356 35766 ft 426 kts 329°
2026-04-25 13:08 28.99215 -82.85068 36355 ft 421 kts 329°
2026-04-25 13:09 29.01702 -82.86750 36812 ft 418 kts 329°
2026-04-25 13:09 29.04210 -82.88446 37150 ft 418 kts 329°
2026-04-25 13:09 29.06706 -82.90139 37608 ft 415 kts 329°
2026-04-25 13:09 29.09117 -82.91917 37893 ft 416 kts 326°
2026-04-25 13:10 29.13835 -82.95803 37949 ft 418 kts 324°
2026-04-25 13:10 29.18511 -82.99725 37950 ft 415 kts 324°
2026-04-25 13:11 29.23186 -83.03599 37944 ft 416 kts 324°
2026-04-25 13:11 29.27902 -83.07481 37950 ft 414 kts 324°
2026-04-25 13:12 29.32575 -83.11312 37945 ft 416 kts 324°
2026-04-25 13:12 29.36487 -83.14526 37948 ft 416 kts 325°
2026-04-25 13:13 29.41993 -83.19054 37945 ft 416 kts 325°
2026-04-25 13:13 29.46673 -83.22903 37949 ft 418 kts 324°
2026-04-25 13:14 29.51429 -83.26821 37950 ft 417 kts 324°
2026-04-25 13:14 29.56103 -83.30675 37953 ft 416 kts 324°
2026-04-25 13:15 29.60813 -83.34563 37953 ft 417 kts 324°
2026-04-25 13:15 29.65543 -83.38470 37941 ft 418 kts 324°
2026-04-25 13:16 29.70239 -83.42354 37951 ft 417 kts 324°
2026-04-25 13:16 29.74967 -83.46271 37948 ft 417 kts 324°
2026-04-25 13:17 29.79672 -83.50176 37947 ft 417 kts 324°
2026-04-25 13:17 29.84368 -83.54074 37951 ft 418 kts 324°
2026-04-25 13:18 29.89108 -83.58014 37947 ft 418 kts 324°
2026-04-25 13:18 29.93800 -83.61919 37949 ft 417 kts 324°
2026-04-25 13:19 29.98516 -83.65846 37956 ft 418 kts 324°
2026-04-25 13:19 30.02447 -83.69121 37950 ft 417 kts 324°
2026-04-25 13:20 30.07913 -83.73683 37957 ft 417 kts 324°
2026-04-25 13:20 30.12634 -83.77628 37956 ft 418 kts 324°
2026-04-25 13:21 30.17334 -83.81564 37948 ft 418 kts 323°
2026-04-25 13:21 30.22063 -83.85529 37947 ft 418 kts 324°
2026-04-25 13:22 30.26773 -83.89484 37953 ft 419 kts 323°
2026-04-25 13:23 30.33837 -83.95425 37950 ft 417 kts 324°
2026-04-25 13:23 30.38515 -83.99365 37947 ft 417 kts 323°
2026-04-25 13:24 30.43207 -84.03321 37941 ft 416 kts 323°
2026-04-25 13:24 30.47917 -84.07297 37946 ft 417 kts 324°
2026-04-25 13:25 30.52600 -84.11254 37950 ft 417 kts 323°
2026-04-25 13:25 30.57285 -84.15222 37953 ft 417 kts 323°
2026-04-25 13:26 30.61946 -84.19169 37958 ft 416 kts 323°
2026-04-25 13:26 30.66614 -84.23129 37956 ft 417 kts 323°
2026-04-25 13:27 30.71279 -84.27094 37953 ft 416 kts 323°
2026-04-25 13:27 30.75941 -84.31062 37950 ft 416 kts 323°
2026-04-25 13:28 30.80622 -84.35051 37950 ft 417 kts 323°
2026-04-25 13:28 30.85302 -84.39037 37945 ft 416 kts 323°
2026-04-25 13:29 30.89967 -84.43017 37946 ft 415 kts 323°
2026-04-25 13:29 30.94630 -84.47000 37939 ft 417 kts 323°
2026-04-25 13:30 31.01638 -84.53002 37937 ft 416 kts 323°
2026-04-25 13:31 31.08659 -84.59021 37935 ft 416 kts 322°
2026-04-25 13:31 31.13337 -84.63036 37934 ft 416 kts 322°
2026-04-25 13:32 31.17986 -84.67035 37935 ft 414 kts 322°
2026-04-25 13:32 31.22636 -84.71039 37934 ft 415 kts 322°
2026-04-25 13:33 31.27268 -84.75035 37935 ft 415 kts 321°
2026-04-25 13:33 31.31896 -84.79028 37936 ft 415 kts 322°
2026-04-25 13:34 31.36545 -84.83046 37941 ft 413 kts 322°
2026-04-25 13:34 31.41146 -84.87032 37942 ft 414 kts 322°
2026-04-25 13:35 31.45792 -84.91061 37944 ft 413 kts 321°
2026-04-25 13:35 31.50385 -84.95046 37945 ft 411 kts 321°
2026-04-25 13:36 31.54985 -84.99043 37944 ft 413 kts 321°
2026-04-25 13:36 31.59574 -85.03052 37948 ft 411 kts 321°
2026-04-25 13:37 31.64166 -85.07066 37943 ft 411 kts 321°
2026-04-25 13:37 31.68747 -85.11080 37956 ft 410 kts 321°
2026-04-25 13:38 31.73305 -85.15079 37953 ft 412 kts 321°
2026-04-25 13:38 31.77883 -85.19099 37955 ft 409 kts 321°
2026-04-25 13:39 31.82441 -85.23107 37950 ft 409 kts 321°
2026-04-25 13:39 31.86972 -85.27096 37949 ft 408 kts 321°
2026-04-25 13:40 31.91527 -85.31111 37953 ft 409 kts 321°
2026-04-25 13:40 31.96067 -85.35123 37953 ft 407 kts 320°
2026-04-25 13:41 32.00562 -85.39099 37952 ft 407 kts 320°
2026-04-25 13:41 32.05085 -85.43105 37940 ft 406 kts 320°
2026-04-25 13:42 32.09590 -85.47097 37945 ft 405 kts 320°
2026-04-25 13:42 32.14080 -85.51078 37948 ft 406 kts 320°
2026-04-25 13:43 32.18576 -85.55075 37948 ft 407 kts 320°
2026-04-25 13:43 32.23085 -85.59087 37938 ft 405 kts 320°
2026-04-25 13:44 32.27575 -85.63088 37954 ft 407 kts 320°
2026-04-25 13:44 32.32093 -85.67117 37948 ft 406 kts 319°
2026-04-25 13:45 32.36626 -85.71161 37932 ft 408 kts 319°
2026-04-25 13:45 32.41145 -85.75203 37938 ft 406 kts 319°
2026-04-25 13:46 32.45636 -85.79224 37944 ft 406 kts 319°
2026-04-25 13:46 32.50126 -85.83253 37937 ft 408 kts 319°
2026-04-25 13:47 32.54655 -85.87324 37932 ft 408 kts 319°
2026-04-25 13:47 32.59192 -85.91401 37935 ft 407 kts 319°
2026-04-25 13:47 32.61420 -85.93403 37812 ft 405 kts 319°
2026-04-25 13:48 32.63656 -85.95412 37924 ft 406 kts 319°
2026-04-25 13:48 32.68182 -85.99493 37950 ft 410 kts 318°
2026-04-25 13:49 32.72720 -86.03590 37933 ft 407 kts 318°
2026-04-25 13:49 32.77224 -86.07667 37938 ft 409 kts 318°
2026-04-25 13:50 32.81754 -86.11773 37936 ft 411 kts 318°
2026-04-25 13:50 32.86311 -86.15899 37938 ft 412 kts 318°
2026-04-25 13:51 32.90875 -86.20033 37942 ft 412 kts 317°
2026-04-25 13:51 32.95438 -86.24175 37809 ft 412 kts 317°
2026-04-25 13:51 32.97709 -86.26238 37937 ft 411 kts 317°
2026-04-25 13:52 32.99990 -86.28313 37974 ft 416 kts 317°
2026-04-25 13:52 33.04567 -86.32481 37935 ft 413 kts 317°
2026-04-25 13:53 33.09136 -86.36646 37931 ft 414 kts 317°
2026-04-25 13:53 33.13674 -86.40795 37938 ft 415 kts 317°
2026-04-25 13:54 33.18243 -86.44975 37930 ft 414 kts 317°
2026-04-25 13:54 33.22815 -86.49161 37928 ft 415 kts 317°
2026-04-25 13:55 33.27396 -86.53364 37923 ft 415 kts 317°
2026-04-25 13:55 33.31965 -86.57556 37925 ft 415 kts 317°
2026-04-25 13:56 33.36548 -86.61774 37922 ft 417 kts 316°
2026-04-25 13:56 33.41120 -86.65983 37926 ft 413 kts 316°
2026-04-25 13:57 33.45679 -86.70180 37925 ft 417 kts 315°
2026-04-25 13:57 33.50277 -86.74414 37926 ft 416 kts 315°
2026-04-25 13:58 33.54875 -86.78664 37927 ft 418 kts 316°
2026-04-25 13:58 33.59461 -86.82914 37924 ft 416 kts 315°
2026-04-25 13:59 33.64035 -86.87168 37922 ft 418 kts 315°
2026-04-25 13:59 33.68679 -86.91408 37918 ft 420 kts 318°
2026-04-25 14:00 33.73566 -86.95277 37914 ft 422 kts 321°
2026-04-25 14:00 33.78534 -86.99077 37915 ft 423 kts 320°
2026-04-25 14:01 33.83460 -87.02899 37916 ft 422 kts 320°
2026-04-25 14:01 33.88403 -87.06775 37913 ft 425 kts 320°
2026-04-25 14:02 33.93331 -87.10648 37912 ft 421 kts 319°
2026-04-25 14:02 33.98211 -87.14503 37913 ft 424 kts 319°
2026-04-25 14:03 34.03144 -87.18411 37910 ft 424 kts 319°
2026-04-25 14:03 34.08068 -87.22301 37909 ft 422 kts 319°
2026-04-25 14:04 34.12988 -87.26211 37907 ft 422 kts 319°
2026-04-25 14:04 34.17874 -87.30096 37900 ft 423 kts 319°
2026-04-25 14:05 34.22777 -87.34000 37896 ft 422 kts 319°
2026-04-25 14:05 34.27699 -87.37919 37898 ft 424 kts 319°
2026-04-25 14:06 34.32590 -87.41815 37895 ft 424 kts 319°
2026-04-25 14:06 34.37542 -87.45776 37896 ft 424 kts 319°
2026-04-25 14:07 34.42413 -87.49686 37896 ft 420 kts 319°
2026-04-25 14:07 34.47295 -87.53608 37895 ft 423 kts 319°
2026-04-25 14:08 34.52220 -87.57561 37894 ft 426 kts 319°
2026-04-25 14:08 34.57160 -87.61519 37894 ft 422 kts 319°
2026-04-25 14:09 34.62043 -87.65448 37899 ft 423 kts 319°
2026-04-25 14:09 34.66930 -87.69381 37902 ft 423 kts 319°
2026-04-25 14:10 34.71844 -87.73348 37905 ft 422 kts 319°
2026-04-25 14:10 34.76740 -87.77307 37904 ft 422 kts 319°
2026-04-25 14:11 34.81636 -87.81274 37907 ft 424 kts 319°
2026-04-25 14:11 34.86517 -87.85230 37913 ft 421 kts 319°
2026-04-25 14:12 34.91399 -87.89195 37913 ft 422 kts 319°
2026-04-25 14:12 34.96253 -87.93143 37912 ft 422 kts 318°
2026-04-25 14:13 35.01138 -87.97128 37556 ft 423 kts 319°
2026-04-25 14:13 35.03606 -87.99135 37268 ft 419 kts 319°
2026-04-25 14:13 35.06020 -88.01102 36987 ft 416 kts 319°
2026-04-25 14:13 35.08408 -88.03050 36709 ft 417 kts 319°
2026-04-25 14:14 35.10821 -88.05022 36430 ft 416 kts 319°
2026-04-25 14:14 35.13205 -88.06971 36154 ft 417 kts 319°
2026-04-25 14:14 35.15599 -88.08932 35881 ft 419 kts 319°
2026-04-25 14:14 35.18043 -88.10937 35600 ft 421 kts 319°
2026-04-25 14:15 35.20483 -88.12933 35325 ft 421 kts 319°
2026-04-25 14:15 35.25363 -88.16931 34780 ft 423 kts 319°
2026-04-25 14:15 35.27800 -88.18933 34506 ft 425 kts 319°
2026-04-25 14:16 35.30258 -88.20955 34228 ft 424 kts 319°
2026-04-25 14:16 35.32695 -88.22960 33968 ft 424 kts 319°
2026-04-25 14:16 35.35141 -88.24970 33920 ft 422 kts 319°
2026-04-25 14:17 35.40030 -88.29001 33918 ft 428 kts 319°
2026-04-25 14:17 35.44984 -88.33086 33911 ft 423 kts 319°
2026-04-25 14:18 35.49877 -88.37127 33913 ft 424 kts 320°
2026-04-25 14:18 35.54762 -88.41168 33907 ft 424 kts 320°
2026-04-25 14:18 35.57235 -88.43215 33679 ft 427 kts 320°
2026-04-25 14:19 35.59679 -88.45239 33419 ft 424 kts 320°
2026-04-25 14:19 35.62134 -88.47275 33155 ft 421 kts 320°
2026-04-25 14:19 35.64548 -88.49281 32901 ft 420 kts 320°
2026-04-25 14:19 35.66972 -88.51299 32641 ft 420 kts 320°
2026-04-25 14:20 35.69389 -88.53314 32383 ft 420 kts 320°
2026-04-25 14:20 35.71010 -88.54665 32209 ft 420 kts 320°
2026-04-25 14:20 35.74221 -88.57347 31867 ft 421 kts 320°
2026-04-25 14:20 35.76661 -88.59385 31610 ft 422 kts 321°
2026-04-25 14:21 35.79077 -88.61404 31351 ft 422 kts 321°
2026-04-25 14:21 35.81501 -88.63427 31091 ft 421 kts 321°
2026-04-25 14:21 35.83922 -88.65448 30834 ft 418 kts 320°
2026-04-25 14:21 35.86347 -88.67474 30571 ft 416 kts 320°
2026-04-25 14:22 35.88743 -88.69482 30311 ft 415 kts 320°
2026-04-25 14:22 35.91112 -88.71473 30051 ft 412 kts 320°
2026-04-25 14:22 35.93464 -88.73447 29788 ft 408 kts 320°
2026-04-25 14:22 35.95806 -88.75416 29531 ft 407 kts 320°
2026-04-25 14:23 35.98159 -88.77393 29267 ft 406 kts 320°
2026-04-25 14:23 36.00476 -88.79342 29002 ft 404 kts 320°
2026-04-25 14:23 36.02814 -88.81309 28741 ft 403 kts 321°
2026-04-25 14:23 36.05126 -88.83256 28482 ft 404 kts 320°
2026-04-25 14:24 36.07440 -88.85205 28222 ft 403 kts 321°
2026-04-25 14:24 36.09761 -88.87163 27960 ft 400 kts 321°
2026-04-25 14:24 36.12041 -88.89085 27919 ft 396 kts 321°
2026-04-25 14:24 36.14324 -88.91013 27915 ft 399 kts 321°
2026-04-25 14:25 36.16633 -88.92966 27914 ft 402 kts 321°
2026-04-25 14:25 36.18961 -88.94936 27917 ft 402 kts 321°
2026-04-25 14:25 36.21264 -88.96886 27922 ft 401 kts 321°
2026-04-25 14:25 36.22030 -88.97534 27924 ft 401 kts 321°
2026-04-25 14:26 36.25891 -89.00806 27932 ft 403 kts 321°
2026-04-25 14:26 36.28238 -89.02697 27929 ft 405 kts 324°
2026-04-25 14:26 36.30729 -89.04396 27933 ft 408 kts 328°
2026-04-25 14:26 36.33283 -89.05933 27929 ft 410 kts 330°
2026-04-25 14:27 36.35889 -89.07417 27927 ft 408 kts 330°
2026-04-25 14:27 36.38452 -89.08858 27929 ft 408 kts 330°
2026-04-25 14:27 36.41039 -89.10313 27931 ft 410 kts 330°
2026-04-25 14:27 36.43655 -89.11787 27931 ft 409 kts 330°
2026-04-25 14:28 36.46242 -89.13250 27931 ft 410 kts 330°
2026-04-25 14:28 36.48852 -89.14731 27931 ft 410 kts 330°
2026-04-25 14:28 36.51436 -89.16198 27933 ft 409 kts 330°
2026-04-25 14:28 36.54027 -89.17671 27935 ft 410 kts 330°
2026-04-25 14:29 36.56609 -89.19141 27933 ft 410 kts 330°
2026-04-25 14:29 36.59185 -89.20609 27930 ft 411 kts 330°
2026-04-25 14:29 36.61783 -89.22092 27929 ft 410 kts 330°
2026-04-25 14:29 36.64368 -89.23567 27928 ft 410 kts 330°
2026-04-25 14:30 36.66983 -89.25062 27926 ft 411 kts 330°
2026-04-25 14:30 36.72168 -89.28028 27927 ft 411 kts 330°
2026-04-25 14:30 36.74784 -89.29528 27927 ft 413 kts 330°
2026-04-25 14:31 36.77376 -89.31014 27928 ft 412 kts 330°
2026-04-25 14:31 36.79975 -89.32503 27929 ft 411 kts 330°
2026-04-25 14:31 36.82592 -89.34004 27929 ft 412 kts 330°
2026-04-25 14:31 36.85186 -89.35496 27929 ft 412 kts 330°
2026-04-25 14:32 36.87817 -89.37009 27933 ft 411 kts 330°
2026-04-25 14:32 36.90434 -89.38515 27932 ft 412 kts 330°
2026-04-25 14:32 36.93021 -89.40005 27936 ft 412 kts 330°
2026-04-25 14:32 36.95646 -89.41520 27939 ft 412 kts 330°
2026-04-25 14:33 36.98262 -89.43028 27941 ft 414 kts 330°
2026-04-25 14:33 37.00851 -89.44524 27938 ft 414 kts 330°
2026-04-25 14:33 37.03456 -89.46029 27943 ft 412 kts 330°
2026-04-25 14:33 37.06073 -89.47543 27941 ft 413 kts 330°
2026-04-25 14:34 37.08672 -89.49048 27940 ft 413 kts 330°
2026-04-25 14:34 37.11206 -89.50514 27942 ft 413 kts 331°
2026-04-25 14:34 37.13844 -89.52042 27940 ft 412 kts 331°
2026-04-25 14:34 37.16449 -89.53552 27938 ft 412 kts 331°
2026-04-25 14:35 37.19038 -89.55055 27941 ft 412 kts 331°
2026-04-25 14:35 37.21658 -89.56576 27940 ft 412 kts 331°
2026-04-25 14:35 37.24234 -89.58060 27942 ft 412 kts 332°
2026-04-25 14:35 37.26886 -89.59528 27942 ft 413 kts 332°
2026-04-25 14:36 37.29523 -89.60958 27943 ft 413 kts 332°
2026-04-25 14:36 37.32177 -89.62389 27941 ft 413 kts 333°
2026-04-25 14:36 37.34787 -89.63800 27945 ft 413 kts 333°
2026-04-25 14:36 37.37463 -89.65253 27944 ft 413 kts 332°
2026-04-25 14:37 37.40099 -89.66685 27942 ft 412 kts 332°
2026-04-25 14:37 37.42715 -89.68111 27945 ft 412 kts 332°
2026-04-25 14:37 37.45357 -89.69553 27946 ft 413 kts 332°
2026-04-25 14:37 37.48005 -89.71000 27947 ft 412 kts 332°
2026-04-25 14:38 37.50639 -89.72442 27947 ft 412 kts 332°
2026-04-25 14:38 37.53264 -89.73879 27949 ft 412 kts 332°
2026-04-25 14:38 37.55878 -89.75314 27955 ft 412 kts 332°
2026-04-25 14:38 37.58529 -89.76769 27952 ft 411 kts 332°
2026-04-25 14:39 37.61142 -89.78204 27416 ft 410 kts 332°
2026-04-25 14:39 37.63734 -89.79632 26206 ft 412 kts 332°
2026-04-25 14:39 37.66363 -89.81082 24865 ft 416 kts 332°
2026-04-25 14:39 37.68998 -89.82538 23751 ft 413 kts 333°
2026-04-25 14:40 37.71581 -89.83961 22857 ft 406 kts 333°
2026-04-25 14:40 37.74140 -89.85369 22135 ft 395 kts 333°
2026-04-25 14:40 37.76629 -89.86741 21491 ft 383 kts 334°
2026-04-25 14:40 37.79024 -89.88063 20897 ft 372 kts 334°
2026-04-25 14:41 37.81363 -89.89356 20313 ft 362 kts 334°
2026-04-25 14:41 37.83629 -89.90613 19746 ft 352 kts 334°
2026-04-25 14:41 37.85823 -89.91832 19193 ft 344 kts 335°
2026-04-25 14:41 37.88006 -89.93034 18652 ft 336 kts 335°
2026-04-25 14:42 37.90155 -89.94196 18119 ft 341 kts 336°
2026-04-25 14:42 37.91603 -89.94972 17757 ft 350 kts 336°
2026-04-25 14:42 37.94644 -89.96602 16973 ft 354 kts 336°
2026-04-25 14:42 37.96869 -89.97822 16400 ft 344 kts 336°
2026-04-25 14:43 37.99020 -89.99035 15854 ft 335 kts 336°
2026-04-25 14:43 38.01103 -90.00221 15326 ft 327 kts 336°
2026-04-25 14:43 38.03182 -90.01403 14799 ft 327 kts 336°
2026-04-25 14:43 38.05284 -90.02595 14268 ft 341 kts 336°
2026-04-25 14:44 38.07475 -90.03834 13702 ft 345 kts 337°
2026-04-25 14:44 38.09649 -90.05065 13125 ft 338 kts 337°
2026-04-25 14:44 38.11773 -90.06255 12578 ft 328 kts 339°
2026-04-25 14:44 38.13907 -90.07107 12064 ft 318 kts 350°
2026-04-25 14:45 38.16050 -90.07474 11558 ft 310 kts 357°
2026-04-25 14:45 38.18190 -90.07645 11053 ft 311 kts 358°
2026-04-25 14:45 38.20397 -90.07806 10611 ft 319 kts 358°
2026-04-25 14:45 38.22601 -90.08005 10339 ft 307 kts 357°
2026-04-25 14:46 38.24648 -90.08218 10228 ft 286 kts 356°
2026-04-25 14:46 38.26563 -90.08429 10117 ft 268 kts 357°
2026-04-25 14:46 38.28395 -90.08631 9965 ft 257 kts 357°
2026-04-25 14:46 38.30178 -90.08826 9980 ft 263 kts 357°
2026-04-25 14:47 38.32029 -90.09026 9983 ft 275 kts 357°
2026-04-25 14:47 38.33316 -90.09166 9655 ft 283 kts 357°
2026-04-25 14:47 38.35954 -90.09460 9029 ft 285 kts 357°
2026-04-25 14:47 38.37912 -90.09631 8683 ft 282 kts 360°
2026-04-25 14:48 38.39888 -90.09679 8271 ft 281 kts
2026-04-25 14:48 38.41837 -90.09701 7905 ft 279 kts
2026-04-25 14:48 38.43755 -90.09740 7550 ft 276 kts
2026-04-25 14:48 38.45668 -90.09793 7196 ft 274 kts
2026-04-25 14:49 38.47577 -90.09853 6819 ft 269 kts
2026-04-25 14:49 38.49408 -90.09914 6504 ft 259 kts
2026-04-25 14:49 38.51170 -90.09972 6175 ft 251 kts
2026-04-25 14:49 38.52891 -90.10030 5854 ft 243 kts
2026-04-25 14:50 38.54570 -90.10085 5574 ft 237 kts
2026-04-25 14:50 38.56267 -90.10138 5220 ft 251 kts
2026-04-25 14:50 38.58030 -90.10194 4916 ft 253 kts
2026-04-25 14:50 38.59749 -90.10254 4761 ft 244 kts 359°
2026-04-25 14:51 38.61415 -90.10536 4605 ft 239 kts 345°
2026-04-25 14:51 38.62812 -90.11583 4443 ft 236 kts 317°
2026-04-25 14:51 38.63738 -90.13323 4243 ft 234 kts 298°
2026-04-25 14:51 38.64485 -90.15152 4086 ft 234 kts 303°
2026-04-25 14:52 38.65353 -90.16921 3729 ft 235 kts 306°
2026-04-25 14:52 38.66225 -90.18624 3396 ft 234 kts 306°
2026-04-25 14:52 38.67100 -90.20376 3064 ft 226 kts 305°
2026-04-25 14:52 38.67649 -90.21482 2872 ft 215 kts 305°
2026-04-25 14:53 38.68650 -90.23493 2489 ft 192 kts 306°
2026-04-25 14:53 38.69340 -90.24883 2249 ft 178 kts 306°
2026-04-25 14:53 38.69978 -90.26163 2024 ft 165 kts 306°
2026-04-25 14:53 38.70582 -90.27377 1813 ft 159 kts 306°
2026-04-25 14:54 38.71172 -90.28561 1603 ft 158 kts 305°
2026-04-25 14:54 38.71760 -90.29745 1390 ft 158 kts 305°
2026-04-25 14:54 38.72335 -90.30904 1243 ft 152 kts 305°
2026-04-25 14:54 38.72918 -90.32076 997 ft 157 kts 304°
2026-04-25 14:55 38.73499 -90.33246 776 ft 153 kts 304°
2026-04-25 14:55 38.74065 -90.34378 613 ft 142 kts 305°
2026-04-25 14:55 38.74501 -90.35249 555 ft 70 kts 302°
2026-04-25 14:55 38.74637 -90.35537 546 ft 23 kts 302°
2026-04-25 14:56 38.74715 -90.35734 545 ft 31 kts 288°
2026-04-25 14:56 38.74746 -90.35947 543 ft 14 kts 272°
2026-04-25 14:56 38.74746 -90.36015 543 ft 0 kts 272°
2026-04-25 14:57 38.74745 -90.36019 543 ft 1 kts 257°
2026-04-25 14:58 38.74719 -90.36034 543 ft 1 kts 184°
2026-04-25 14:58 38.74700 -90.36030 543 ft 5 kts 158°
2026-04-25 14:58 38.74630 -90.35912 544 ft 21 kts 122°
2026-04-25 14:58 38.74552 -90.35753 545 ft 21 kts 122°
2026-04-25 14:59 38.74482 -90.35644 546 ft 13 kts 159°
2026-04-25 14:59 38.74408 -90.35637 546 ft 11 kts 180°
2026-04-25 14:59 38.74329 -90.35638 546 ft 12 kts 179°
2026-04-25 14:59 38.74218 -90.35634 546 ft 19 kts 178°
2026-04-25 15:00 38.74144 -90.35628 547 ft 0 kts 168°
2026-04-25 15:00 38.74137 -90.35626 547 ft 5 kts 160°
2026-04-25 15:00 38.74070 -90.35610 547 ft 10 kts 185°
2026-04-25 15:00 38.74007 -90.35605 548 ft 8 kts 199°
2026-04-25 15:01 38.73980 -90.35621 547 ft 0 kts 211°
2026-04-25 15:01 38.73970 -90.35628 547 ft 8 kts 211°
2026-04-25 15:01 38.73911 -90.35692 549 ft 11 kts 242°
2026-04-25 15:02 38.73877 -90.35781 550 ft 0 kts 243°
2026-04-25 15:02 38.73873 -90.35799 550 ft 6 kts 259°
2026-04-25 15:02 38.73891 -90.35874 550 ft 9 kts 300°
2026-04-25 15:02 38.73889 -90.35947 551 ft 6 kts 224°
2026-04-25 15:03 38.73868 -90.35963 551 ft 0 kts 208°
2026-04-25 15:03 38.73861 -90.35968 552 ft 0 kts 210°